Weather in Tegeshevo

Russia / Chuvash Republic     55°33′08″N   48°05′30″E
temp.,
°C
wind,
m/s
gust,
m/s
humid.,
%
clouds,
%
prec.,
mm/h
press.,
hPa
HPBL,
m
17 june, thu
thu1700:00+15n614870 0.0 1012552
03:00+12nnw410931 0.0 1015214
06:00+15nnw410840 0.0 1016327
09:00+19nnw466019 0.0 1017821
12:00+21nw685440 0.0 10181889
15:00+21nw68563 0.0 10182151
18:00+19nw596828 0.0 1019391
21:00+17n5115726 0.0 1021442
18 june, fri
fri1800:00+12nnw48760 0.0 1023150
03:00+9nnw36830 0.0 1025106
06:00+12nnw47750 0.0 1026254
09:00+16n68565 0.0 1027901
12:00+18n57485 0.0 10271423
15:00+19n46475 0.0 10261453
18:00+20n125724 0.0 1026760
21:00+14wsw227741 0.0 102711
19 june, sat
sat1900:00+12wsw22773 0.0 102722
03:00+11wsw37835 0.0 1027120
06:00+15wsw4117887 0.0 1027288
09:00+20w696911 0.0 1026550
12:00+24w796388 0.0 10241104
15:00+25wnw69645 0.0 10231442
18:00+23w612735 0.0 1022611
21:00+19w413870 0.0 1022286
20 june, sun
sun2000:00+17w49890 0.0 1022169
03:00+16w410920 0.0 1023181
06:00+19wnw410850 0.0 1023283
09:00+24wnw57720 0.0 1022585
12:00+26wnw56620 0.0 10221153
15:00+27wnw55600 0.0 10211218
18:00+25w58751 0.0 1021351
21:00+21wnw368791 0.1 1021138
21 june, mon
mon2100:00+20w368461 0.0 1021123
03:00+18wnw239119 0.0 102235
06:00+21w358330 0.0 1022186
09:00+25w45680 0.0 1021516
12:00+27w45575 0.0 10211404
15:00+28wnw45565 0.0 10201851
18:00+25w3674100 0.0 1019259
21:00+21w358845 0.0 101977